Theta_e
295 290 287 287 288 289 290 289 289 291 291 290 289 288 287 287 288 291 292 294 296 292 292 291 293 293 293 300 312 317 318 319 319 319 321 322 322 322 322 321 321 322 323 328 330 329 329 330 330 331 334 335 336 336 335 334 333 332 332 333 331 331 331 331 330 327 326 327 330 329 328 327 327 329 330 333 334 334 335 335 335 335 334 334 335 336
295 288 289 290 289 289 290 290 291 290 291 291 289 287 287 288 287 292 293 294 296 293 291 291 291 292 293 299 314 315 316 316 317 318 320 321 320 320 319 319 321 324 327 329 328 329 330 329 329 330 330 332 331 331 332 332 331 332 332 331 331 330 330 330 331 329 329 327 326 326 327 328 327 329 328 331 332 333 335 335 335 335 335 334 334 336
290 288 290 291 290 291 291 291 291 290 290 290 288 287 286 287 291 293 294 294 295 294 291 291 291 291 295 306 314 315 316 317 319 320 321 319 318 318 319 321 322 323 324 326 328 331 331 331 331 330 330 330 330 330 331 332 333 332 331 330 330 329 329 327 330 329 328 329 332 329 328 327 327 330 332 331 332 334 334 334 335 336 335 335 334 334
285 289 291 293 291 290 290 290 290 290 290 288 287 285 285 288 288 284 290 293 294 294 290 291 291 291 305 309 312 314 315 315 318 319 319 319 318 319 320 321 322 322 323 325 327 329 330 331 331 331 330 331 331 330 329 330 331 332 332 330 329 329 330 329 328 332 329 330 333 332 331 332 331 331 331 330 330 331 331 333 335 335 335 335 335 334
287 290 294 293 292 291 289 290 289 288 287 289 289 287 287 288 289 288 286 292 294 295 295 291 291 292 303 305 308 312 317 317 318 319 320 322 323 324 324 324 324 324 325 326 327 327 328 328 328 328 329 330 330 330 330 329 329 333 333 333 333 333 333 331 331 334 330 330 330 328 330 329 328 327 327 326 328 328 329 332 330 333 334 334 334 334
290 293 296 293 292 291 290 288 290 289 286 288 290 290 290 291 289 290 291 291 288 289 292 292 283 286 294 305 307 311 313 313 317 318 319 321 323 324 323 323 325 326 327 326 326 326 327 327 327 328 328 328 328 329 331 331 331 332 333 333 332 331 331 332 333 333 332 330 328 328 327 326 323 324 325 325 326 327 328 330 332 331 332 332 333 333
291 294 294 292 291 291 290 289 290 291 287 285 288 292 292 292 291 291 290 290 283 283 290 296 286 282 294 302 306 309 311 312 316 316 318 320 322 322 322 323 323 323 323 324 325 326 325 325 325 324 323 323 324 326 327 326 327 328 329 329 329 328 328 329 328 329 331 329 329 328 327 326 324 323 325 327 328 328 328 330 331 332 333 332 332 333
293 293 292 293 292 290 289 288 291 292 288 286 292 291 292 291 290 290 290 288 285 290 294 293 293 291 291 300 308 310 310 311 312 314 316 318 320 320 320 320 320 321 322 322 322 323 323 323 322 322 322 323 324 325 325 324 325 325 326 326 326 327 327 326 327 328 329 328 327 327 327 328 326 327 327 329 329 330 331 330 331 331 331 332 332 331
292 290 291 290 291 290 289 291 292 293 290 289 292 292 290 291 290 291 290 288 288 289 283 291 296 290 290 302 311 310 307 308 310 312 314 316 317 317 317 318 319 320 321 321 320 320 321 320 321 321 320 321 323 323 322 322 324 324 325 325 325 325 326 326 327 327 326 327 326 326 326 325 325 326 326 328 329 329 330 329 329 329 329 329 329 331
293 293 293 293 291 289 292 292 294 293 289 291 293 293 293 293 293 292 289 288 288 285 281 290 295 286 287 299 304 308 307 307 309 312 313 314 315 315 315 317 318 319 320 320 320 320 320 320 320 320 320 320 320 322 323 322 322 323 323 323 323 324 324 324 324 325 324 325 326 325 325 324 323 324 325 325 325 327 327 327 328 328 328 326 328 329
293 298 297 295 292 293 293 293 295 294 293 295 293 291 290 290 290 291 289 288 286 279 283 292 294 293 285 295 302 302 305 309 310 311 312 313 314 315 315 316 316 317 317 318 318 318 319 319 319 319 318 319 320 320 320 320 320 321 322 322 321 322 323 324 323 324 323 324 324 323 323 323 323 323 323 323 323 326 326 326 326 327 327 326 327 327
292 294 293 295 298 297 296 294 296 297 295 293 290 289 287 286 291 289 288 289 280 278 285 292 293 295 287 292 301 306 312 312 311 309 310 311 312 313 314 315 316 316 316 317 316 317 317 318 318 318 317 318 318 319 319 320 320 320 320 319 318 319 320 321 322 323 323 323 323 323 323 322 323 323 322 322 323 325 325 326 326 325 325 325 325 325
288 290 294 295 300 296 293 291 292 294 294 292 290 287 283 278 283 279 284 280 278 280 284 293 294 291 287 289 296 307 312 313 313 312 311 311 311 312 313 314 315 315 316 315 315 315 315 315 316 316 317 317 317 317 318 318 318 318 317 317 316 316 317 318 319 319 321 321 321 321 321 322 323 322 322 322 323 325 325 326 327 325 325 325 325 325
285 291 291 293 294 298 295 288 286 287 290 290 288 284 282 277 277 275 279 279 279 285 288 293 294 286 291 300 306 308 312 314 314 313 313 312 311 312 312 313 314 314 315 315 315 315 314 315 315 315 316 316 317 316 317 317 318 318 317 316 315 314 313 314 316 317 318 319 319 320 320 320 320 320 321 322 322 322 323 325 327 327 326 325 326 327
278 281 287 291 287 296 294 293 291 289 289 290 291 288 282 281 279 274 277 278 279 278 286 293 290 281 289 295 310 311 313 312 312 312 312 312 312 312 313 313 313 313 313 314 313 313 314 314 314 314 315 315 315 315 316 317 318 318 316 314 313 312 313 313 314 315 315 316 316 318 320 320 320 320 321 321 322 322 322 323 323 324 326 325 326 327
284 283 290 294 293 296 293 295 295 291 288 291 291 290 284 285 283 280 278 279 280 280 282 287 290 296 295 305 308 310 310 309 310 310 310 310 310 311 310 310 311 312 312 313 313 313 313 314 314 313 313 313 313 316 317 317 317 315 313 312 311 312 312 313 314 314 314 314 315 317 319 320 321 319 319 319 320 321 321 321 321 321 322 324 325 326
284 282 291 293 295 294 295 296 294 295 283 288 290 286 289 292 288 281 282 285 279 283 283 291 294 298 303 304 306 307 307 307 308 308 308 308 309 309 308 309 309 310 310 311 311 312 313 313 314 314 314 314 315 316 316 315 314 313 311 310 311 312 312 312 313 312 313 313 313 314 315 317 316 315 316 317 316 317 318 319 319 319 320 322 323 323
280 280 290 291 291 294 298 296 295 296 293 288 285 289 292 293 293 285 280 283 278 276 281 292 290 292 295 288 304 304 303 305 305 306 307 307 308 307 307 308 308 308 309 310 311 311 312 312 313 313 313 314 315 315 315 315 315 314 313 310 310 311 311 312 312 312 312 313 313 314 315 317 317 315 315 316 316 315 315 315 316 318 318 319 321 321
289 281 287 292 292 294 296 296 293 295 297 292 291 294 290 280 283 285 283 277 275 277 283 289 295 294 295 293 299 300 301 302 304 305 305 306 306 306 307 307 308 308 308 308 309 309 310 310 311 311 311 314 315 314 314 315 316 315 313 312 311 310 311 312 314 313 313 313 314 315 315 315 315 314 313 313 314 313 313 314 314 315 316 317 318 317
290 281 283 292 291 293 293 292 285 289 293 294 293 292 292 289 285 281 282 282 282 278 284 287 293 286 296 297 300 301 303 303 303 304 304 305 306 306 306 307 307 306 307 308 308 308 309 310 311 312 312 313 312 312 313 313 313 311 310 311 311 312 313 315 314 313 311 312 312 312 312 312 312 312 312 311 311 312 312 313 313 314 313 314 314 314
282 288 281 288 293 293 286 289 287 289 287 287 287 286 290 291 290 290 287 283 280 280 284 285 285 288 295 304 303 303 304 304 304 303 304 305 306 306 306 306 306 306 306 307 308 308 309 308 309 311 313 313 313 313 312 312 312 312 311 310 311 311 311 313 313 312 311 311 311 311 309 309 309 309 310 310 311 311 311 311 312 312 313 313 311 312
285 286 283 286 288 288 288 292 292 291 290 286 286 283 286 287 283 282 278 285 287 286 285 285 283 291 299 307 305 305 305 305 305 305 304 305 305 305 305 306 306 306 307 307 307 307 308 309 309 310 311 312 311 310 310 310 310 310 309 310 310 310 310 310 310 310 310 310 309 309 309 308 308 308 308 309 310 310 310 310 310 311 311 310 310 310
290 289 287 284 285 287 289 292 295 294 293 290 290 287 288 286 285 278 277 280 284 286 291 287 286 287 302 303 305 305 306 306 306 305 304 305 305 305 305 306 306 306 306 306 306 307 308 309 309 309 309 309 309 308 307 307 308 308 308 309 309 309 308 309 309 310 309 309 308 308 308 308 308 308 308 308 308 308 309 309 309 310 308 308 308 308
306 287 285 287 289 289 292 293 294 294 294 290 291 290 289 287 287 285 281 282 283 285 284 282 284 290 303 307 306 306 306 306 306 305 304 304 304 304 304 305 305 305 306 306 307 307 307 308 308 308 308 308 307 307 306 306 307 308 308 308 308 308 308 308 309 309 309 308 307 307 307 308 308 308 308 307 308 307 308 308 308 308 307 307 307 306
287 287 286 283 282 283 288 289 289 293 293 288 286 289 289 289 290 289 288 287 286 286 287 285 282 288 301 306 305 305 304 304 304 305 305 303 303 304 304 304 305 305 305 305 306 306 306 306 306 307 307 306 306 306 305 306 306 306 307 307 307 307 308 308 308 308 308 307 306 306 307 308 308 307 307 307 307 306 306 306 306 306 306 306 305 305
289 286 285 281 278 276 275 278 279 281 287 287 289 289 290 289 288 287 284 283 281 288 288 285 286 295 301 303 303 303 303 302 304 304 304 303 303 303 303 303 303 304 304 305 305 305 305 305 306 306 306 306 305 305 305 305 305 305 306 306 307 306 306 307 307 307 307 306 306 306 306 307 306 306 306 306 306 306 306 305 305 305 305 304 302 302
289 291 287 284 283 281 282 287 289 287 288 283 287 288 290 290 289 288 284 282 282 285 285 292 294 293 295 299 299 301 301 300 300 301 301 301 302 303 303 303 303 304 304 303 303 303 304 304 304 305 305 305 304 303 304 304 305 305 305 305 305 306 306 306 306 306 306 306 306 306 305 305 305 305 305 305 305 305 304 304 304 304 303 303 301 300
292 287 288 288 288 288 288 291 291 290 287 287 287 287 288 288 289 288 286 283 289 290 286 295 297 294 294 297 299 299 300 300 300 301 301 301 302 302 302 303 304 303 303 303 302 302 301 302 302 302 302 302 302 303 303 303 304 304 304 304 304 305 305 306 305 305 305 305 305 305 305 305 305 304 304 304 304 304 303 303 302 302 302 302 301 300
289 285 287 288 288 292 293 293 293 290 289 290 289 289 290 290 290 287 286 290 292 287 287 295 297 295 296 298 299 300 300 300 300 300 301 302 302 303 303 302 302 301 301 301 301 301 301 300 300 300 301 301 301 301 301 302 303 303 303 303 304 304 304 305 304 304 304 304 304 304 305 305 305 304 304 304 303 303 302 302 301 301 301 301 300 301
293 285 288 290 289 293 295 295 294 294 294 296 295 295 294 290 289 292 292 294 292 291 297 297 297 296 298 299 300 301 302 301 301 302 302 301 301 302 302 301 300 300 300 300 300 300 300 300 300 299 299 299 299 300 301 301 302 302 302 302 302 303 303 303 303 303 303 303 303 304 303 303 303 302 302 302 302 302 302 301 301 301 300 300 300 299
293 285 293 290 286 290 293 295 296 295 294 291 293 293 294 294 295 294 294 295 298 297 297 296 295 293 298 301 300 301 301 301 301 300 300 301 302 301 300 299 299 299 299 300 300 299 299 298 298 298 297 297 298 298 300 301 301 301 301 301 302 302 302 302 301 301 301 301 302 302 302 302 302 301 301 301 301 301 301 301 300 300 299 299 299 298
294 287 290 287 283 284 291 292 293 293 292 290 289 290 291 291 291 292 291 294 296 294 295 295 291 291 296 300 300 300 300 299 298 299 300 300 301 299 298 298 298 298 298 298 298 297 297 297 297 297 297 297 298 299 299 300 301 301 300 301 301 301 301 301 300 299 299 299 299 299 299 299 299 300 300 300 300 300 300 300 299 299 298 298 298 298
292 289 283 283 283 282 290 290 290 289 287 284 283 289 292 292 293 293 295 296 299 299 293 290 292 297 297 299 297 297 298 298 299 299 300 300 299 298 298 298 298 298 297 296 296 297 297 297 296 296 296 297 299 300 300 301 300 300 300 300 301 301 301 300 299 298 298 298 298 297 298 297 297 297 297 298 298 299 299 299 299 298 297 297 298 297
295 293 286 286 284 284 288 287 285 282 279 282 292 295 295 291 292 291 290 293 293 297 296 299 297 298 298 298 297 296 297 298 299 301 302 299 297 297 297 297 297 296 296 296 297 296 296 296 296 297 297 298 299 300 301 301 301 300 301 301 301 300 300 299 299 298 298 297 297 297 296 296 296 296 296 297 297 297 297 297 297 297 297 297 297 296
291 290 286 285 283 283 284 284 281 277 278 292 296 297 296 295 294 292 293 294 295 297 297 296 297 297 298 299 298 298 299 300 301 301 300 300 299 297 296 296 295 295 296 296 296 295 295 296 296 296 297 298 298 299 300 300 300 300 300 300 299 299 299 298 298 297 297 296 296 296 295 295 294 295 295 295 295 295 295 295 295 295 296 295 295 295
287 289 284 285 281 283 282 281 276 275 288 294 294 296 298 296 295 295 292 294 296 297 297 296 297 298 298 296 296 296 296 296 296 296 297 298 298 297 296 295 295 296 296 296 295 295 295 296 296 296 296 298 298 298 298 298 299 299 299 299 299 298 297 297 296 296 296 295 294 294 294 293 293 293 293 294 294 294 293 293 293 293 294 295 294 294
293 289 288 284 283 282 281 283 283 289 290 291 290 291 290 288 290 288 286 289 295 298 298 296 295 295 295 294 295 296 296 296 293 293 297 297 297 298 297 296 297 297 296 296 296 296 297 297 297 297 297 297 297 297 297 297 297 298 298 298 298 297 296 296 295 295 295 295 294 294 293 293 293 293 292 292 292 292 292 292 292 292 293 292 292 293
294 292 287 286 282 282 283 282 282 282 280 286 293 295 297 298 297 296 292 288 294 296 298 296 294 294 294 294 295 296 297 293 289 290 295 297 298 298 298 298 298 297 297 296 297 297 297 297 298 298 297 297 297 297 297 297 298 297 297 297 297 296 295 294 294 295 295 294 294 294 293 293 293 292 292 292 291 291 291 291 292 291 292 290 290 291
294 293 289 287 283 282 281 280 279 278 280 286 292 295 298 299 298 296 290 285 293 295 297 296 294 294 294 294 295 296 294 288 287 290 295 297 298 298 297 298 298 298 297 297 297 297 297 297 297 297 297 296 296 296 297 297 297 297 296 296 295 295 294 293 293 294 294 294 294 294 293 293 293 292 291 291 291 291 291 291 291 291 290 290 290 290
290 284 286 284 281 279 280 280 280 280 283 289 294 296 298 299 298 292 282 284 292 295 296 296 294 294 295 296 297 296 293 287 288 291 296 297 298 298 297 296 297 297 297 297 297 297 298 298 298 296 295 295 295 296 297 297 297 297 296 295 295 294 294 293 294 294 294 294 294 294 294 293 293 292 292 291 291 291 291 291 291 290 290 289 289 289
284 283 283 283 281 282 283 283 283 284 287 293 297 299 298 299 292 283 281 285 294 296 297 296 295 296 296 296 297 293 291 294 295 296 297 297 297 297 298 298 297 298 297 297 297 297 297 296 296 296 295 296 296 296 296 296 295 295 295 295 294 294 294 294 295 295 294 294 294 294 293 293 292 292 292 291 291 291 291 290 290 289 289 289 289 289
283 281 284 284 283 282 280 282 284 285 289 296 298 301 301 294 283 283 287 294 296 296 297 297 295 296 297 297 292 292 294 296 296 296 297 297 297 297 298 298 298 298 298 297 297 296 295 294 294 294 295 296 297 297 296 296 295 294 294 294 294 294 295 296 295 295 294 294 293 293 293 293 293 293 293 292 291 290 289 290 290 290 289 288 289 289
284 281 282 282 283 281 280 282 284 283 290 298 298 297 298 287 285 289 292 296 297 296 296 295 296 296 296 292 294 294 294 295 295 296 296 296 296 296 296 296 296 296 296 296 295 295 295 293 294 295 295 296 296 296 296 295 294 294 293 293 293 294 295 295 295 295 294 294 294 294 293 293 293 293 293 292 291 289 288 289 289 289 289 288 289 289
288 283 282 281 285 282 281 281 283 288 292 297 296 288 292 292 295 295 296 293 296 296 295 295 296 296 295 294 294 294 294 295 295 296 296 296 296 296 296 296 296 296 296 296 296 295 295 294 294 295 295 295 296 296 296 295 294 294 293 293 293 294 294 294 294 294 294 293 293 293 294 294 293 292 291 291 290 289 288 288 288 288 288 288 288 288
293 287 286 285 287 284 283 285 291 293 294 294 294 292 294 295 296 297 296 295 294 295 297 296 295 294 295 295 295 294 294 295 295 296 295 295 296 296 296 296 296 295 295 295 295 295 295 294 294 294 294 294 295 295 295 295 294 293 292 293 293 294 294 293 294 293 292 292 292 293 293 292 292 291 290 289 288 288 288 288 288 287 287 287 287 287
295 295 294 292 288 294 295 294 294 293 293 294 295 295 295 295 296 296 295 294 295 296 297 295 294 294 295 296 294 294 295 295 295 295 295 296 296 296 296 296 295 295 295 295 295 295 294 293 292 291 291 292 294 294 293 293 294 293 293 293 294 293 293 293 293 292 292 291 292 292 292 291 290 290 289 289 289 288 287 287 287 287 287 286 287 286
292 296 293 290 293 290 285 293 292 291 292 294 294 295 296 296 295 296 295 295 295 295 295 296 295 295 295 296 295 295 295 295 295 295 296 296 295 295 295 294 294 294 294 294 294 294 293 292 291 291 292 292 291 292 292 292 292 292 292 292 292 292 292 293 293 293 291 291 291 290 290 290 289 289 288 288 288 289 289 287 285 286 287 285 285 286
289 297 291 291 291 287 289 293 293 293 293 294 295 293 293 294 294 295 295 295 295 296 296 296 296 295 296 295 296 295 295 295 295 295 295 295 295 295 294 294 294 295 295 295 294 293 292 291 291 291 292 292 292 292 292 292 292 293 292 292 293 291 291 291 291 291 290 290 290 290 290 290 289 289 287 286 286 286 286 286 286 285 285 284 285 285
293 294 285 290 289 292 294 294 293 294 294 293 294 294 294 294 294 294 295 295 295 295 295 296 296 296 296 296 296 296 295 295 296 295 295 295 295 294 294 294 295 294 294 293 293 293 292 291 291 291 291 291 291 291 291 291 291 292 292 292 292 292 291 290 290 291 289 289 289 290 289 290 288 287 286 285 285 285 285 286 286 286 285 284 283 284
291 286 292 291 287 287 288 290 293 288 287 291 292 293 294 295 295 294 294 294 294 294 295 295 295 296 297 296 296 296 295 295 296 295 295 295 294 294 294 294 294 294 293 292 292 291 291 292 291 291 290 289 290 291 291 290 290 292 292 292 292 292 292 291 290 288 288 289 289 289 289 289 289 289 288 286 286 285 286 287 289 287 285 285 289 289
291 292 291 288 288 287 293 294 294 294 293 294 294 294 295 295 295 294 293 294 294 295 295 295 294 294 295 296 297 296 295 295 295 295 294 294 294 295 295 294 293 292 291 292 291 291 291 291 292 291 290 290 291 291 290 289 290 291 291 292 292 292 291 291 290 290 288 288 289 289 290 289 288 287 288 286 286 286 285 286 285 287 289 289 289 289
Wind_Speed
3 9 12 16 10 8 5 6 6 5 3 4 5 4 6 6 4 3 5 3 6 4 10 7 8 7 6 10 13 11 10 11 14 13 13 12 12 12 12 11 11 11 9 7 9 8 9 7 6 6 5 6 6 4 4 4 5 4 5 6 6 3 4 4 4 2 2 1 1 1 3 4 4 3 3 4 4 5 5 5 5 5 5 4 4 4
5 8 16 9 5 6 6 5 6 4 6 8 5 4 7 7 7 6 7 5 6 6 7 6 6 2 4 7 16 8 12 14 14 14 14 14 12 11 13 13 11 11 10 12 10 9 7 7 7 5 5 4 7 3 3 3 3 4 4 5 4 4 3 3 2 2 1 2 2 3 4 4 5 4 3 5 5 5 5 5 4 4 4 4 5 5
13 17 6 4 4 6 5 6 7 8 7 8 8 6 4 7 7 6 5 5 6 8 8 5 6 4 1 12 13 16 13 11 11 17 17 18 14 12 12 13 12 10 10 10 9 9 9 8 6 5 5 4 3 3 3 2 3 4 3 4 4 3 3 2 2 1 1 2 3 3 3 4 3 4 4 4 4 3 4 5 5 5 5 5 6 5
9 11 6 7 5 6 6 7 7 8 8 8 5 6 9 4 3 5 3 5 6 7 6 6 8 3 8 7 9 6 10 6 5 7 9 9 15 15 14 12 12 12 10 11 11 12 10 9 8 7 6 5 4 3 2 2 3 3 3 3 2 1 0 0 0 1 3 3 3 3 3 3 3 4 2 2 3 2 2 4 5 5 6 6 6 5
7 3 8 8 8 9 9 8 9 9 10 10 8 6 6 9 5 3 2 5 5 13 3 7 7 6 3 9 4 7 7 12 10 12 12 9 10 12 13 11 11 12 12 13 12 11 11 10 9 7 6 6 6 4 3 3 2 2 2 2 1 0 2 2 2 2 2 1 2 2 3 2 3 2 3 3 4 2 2 3 4 7 5 6 6 5
10 6 13 10 11 10 9 10 14 11 8 10 10 11 10 7 4 3 3 1 2 9 4 11 3 3 5 4 12 9 9 9 8 14 12 13 14 13 14 12 11 10 10 12 11 11 12 12 9 8 8 8 7 7 6 6 6 6 7 7 7 7 6 6 5 4 3 3 2 1 3 4 3 4 5 5 4 4 4 4 4 2 4 5 4 5
6 4 13 14 12 12 12 11 8 11 11 8 11 10 11 9 4 2 3 1 5 7 8 3 10 2 1 2 5 10 14 12 9 11 11 12 11 10 11 9 9 11 12 10 11 11 11 11 11 8 8 8 8 6 5 7 8 9 8 8 7 6 5 5 5 6 6 5 5 3 2 1 2 2 3 3 4 4 4 3 4 4 4 3 4 4
8 12 13 14 13 12 13 13 12 15 10 13 3 8 10 8 6 4 4 4 4 4 1 4 6 10 4 5 3 12 17 15 13 11 11 9 11 11 8 9 10 10 11 11 11 11 10 9 11 10 8 9 7 5 7 8 8 8 7 8 7 6 6 5 5 7 7 6 5 5 5 5 7 6 6 6 5 5 4 5 6 6 5 4 4 5
7 8 11 14 14 12 15 14 7 11 12 7 4 6 5 6 6 5 5 4 5 2 4 4 6 7 2 5 7 13 17 14 15 14 14 13 12 11 10 9 9 10 12 11 10 10 10 11 11 10 9 8 7 5 7 6 6 6 5 6 6 7 6 6 7 7 7 6 5 5 5 6 5 5 5 5 5 6 6 6 6 6 5 4 2 2
5 9 10 11 12 14 8 5 9 13 12 5 5 3 3 3 2 6 7 7 3 3 6 8 9 8 3 5 8 7 14 17 14 13 11 12 13 12 11 11 10 9 10 12 11 10 9 11 10 9 7 9 5 5 6 4 5 5 4 6 7 7 6 6 7 7 7 7 6 8 8 8 7 6 6 6 7 6 5 6 7 6 5 4 4 4
5 8 6 9 13 10 4 5 8 9 7 2 4 5 2 2 4 3 5 5 1 4 8 11 10 12 5 10 11 15 13 14 12 11 11 11 12 11 10 11 10 10 9 11 11 9 10 9 9 9 9 8 7 5 5 6 7 6 6 7 10 8 6 7 7 6 7 6 7 7 7 7 8 8 8 9 9 7 7 7 6 6 6 5 6 5
6 9 10 6 9 6 6 7 8 10 6 6 3 5 3 3 0 1 4 3 5 7 8 12 11 16 11 8 9 4 11 23 20 19 17 16 13 10 9 10 11 11 10 10 11 9 10 9 8 9 9 7 6 7 7 6 7 8 8 9 10 8 7 7 6 6 6 6 6 6 5 7 7 8 7 7 7 7 7 7 7 6 5 6 5 6
12 10 9 9 5 12 11 10 9 10 10 10 7 3 8 3 4 5 2 5 7 10 6 11 9 7 5 3 6 10 12 10 17 16 18 18 15 13 12 12 10 10 10 10 9 9 8 8 7 9 9 7 7 6 4 5 7 6 6 7 7 6 6 6 6 6 5 6 7 6 6 7 7 7 6 6 6 6 6 6 7 7 7 6 6 6
8 7 7 12 7 10 12 12 8 10 13 14 13 8 9 6 7 6 7 2 3 3 3 12 8 3 0 0 1 15 16 9 8 10 15 16 16 15 13 12 11 9 10 9 9 9 9 7 6 8 10 8 5 3 3 4 5 5 5 5 6 3 3 4 5 5 5 5 5 5 5 5 5 4 4 4 5 5 5 6 6 6 5 5 6 6
9 11 14 12 10 11 14 15 13 9 13 15 9 8 6 5 4 5 4 10 9 6 1 2 10 2 4 1 2 9 11 11 10 11 12 13 14 14 12 12 12 11 9 9 9 9 10 8 7 8 8 7 4 3 3 3 5 5 4 3 3 3 2 3 3 3 4 3 4 5 4 4 3 4 4 4 4 5 6 6 6 6 6 6 7 7
14 8 6 12 4 11 13 12 10 4 3 7 4 7 5 9 7 5 6 7 3 2 3 6 2 3 2 1 9 11 13 13 13 14 15 14 13 13 13 12 11 10 9 8 9 9 8 8 7 7 7 5 3 2 3 7 6 4 3 3 2 2 0 2 2 2 3 4 3 4 4 4 3 3 4 5 5 5 5 5 6 6 7 7 7 8
7 9 4 8 11 11 16 9 10 10 9 7 9 11 12 6 6 2 1 0 5 8 2 0 4 3 1 6 7 13 13 11 12 13 12 13 13 12 11 11 10 10 9 8 8 8 9 7 6 6 7 5 4 3 4 4 4 4 4 3 2 1 0 1 1 1 2 3 4 4 4 4 4 4 4 4 4 6 6 6 6 6 7 7 8 8
7 5 5 7 15 11 15 12 11 13 7 5 9 10 4 3 4 4 3 0 1 6 2 2 7 7 8 3 3 12 14 10 11 11 12 11 11 12 10 10 10 11 10 10 10 9 8 8 8 7 6 5 4 5 6 6 4 4 3 3 2 1 0 0 1 2 3 4 4 5 5 6 6 5 6 5 4 5 5 6 7 7 8 8 8 8
2 2 6 10 10 9 10 13 10 9 10 8 11 7 8 5 7 2 4 4 3 4 2 2 7 7 5 8 9 14 16 12 12 11 12 12 11 11 11 11 10 10 10 9 9 9 7 7 8 7 6 4 5 6 6 5 4 2 1 1 2 3 1 1 2 3 5 6 6 6 7 7 7 6 7 6 5 5 6 7 7 8 8 8 10 10
2 2 2 6 8 9 7 9 11 11 9 6 6 9 6 5 4 5 7 4 7 4 5 5 9 4 2 6 13 15 16 17 14 12 12 13 12 12 11 10 10 9 9 9 8 7 7 7 7 6 5 7 7 6 5 4 3 3 3 4 5 7 7 6 6 5 6 6 7 7 8 8 7 7 6 7 6 7 8 8 9 9 9 9 9 9
3 2 4 4 9 11 9 6 11 13 12 6 4 4 6 4 2 5 1 5 6 7 6 7 6 4 2 9 10 12 12 14 14 12 10 11 11 11 11 10 9 9 8 8 8 8 7 6 6 6 7 7 5 5 5 5 5 3 5 8 9 9 7 6 5 6 6 7 7 8 8 8 8 8 7 7 8 9 9 9 9 9 9 8 9 10
0 0 6 5 2 11 8 9 11 11 8 5 7 6 7 9 3 9 6 2 4 7 6 7 5 1 2 2 11 12 11 13 12 13 12 11 11 11 10 11 10 9 8 8 6 5 6 7 7 9 8 5 7 7 7 4 5 5 6 6 8 8 6 6 7 6 7 7 7 7 7 7 7 8 8 8 9 10 9 9 9 9 9 9 9 10
4 1 2 5 4 8 8 6 9 9 7 6 8 6 5 4 8 5 5 4 5 2 5 3 7 1 1 1 10 12 12 12 12 14 13 11 11 10 10 11 8 8 8 6 5 5 6 6 8 8 7 7 7 6 6 5 4 4 5 6 6 7 6 5 6 6 7 8 8 7 5 5 7 7 8 9 9 10 10 10 10 10 10 10 9 9
5 1 2 6 3 6 4 1 5 10 9 4 1 2 5 3 6 8 5 6 7 3 4 1 4 1 2 6 11 11 12 12 11 14 15 11 10 10 11 10 9 7 5 5 7 8 7 6 7 7 8 8 8 7 7 6 6 7 7 7 8 9 7 7 6 6 7 7 7 6 6 7 8 10 10 11 10 11 11 10 9 9 10 10 9 10
2 2 5 4 1 3 1 1 2 0 4 3 3 3 3 3 4 2 5 2 7 6 8 9 5 3 5 12 12 13 14 13 14 12 15 14 10 10 11 9 6 5 8 9 10 9 8 9 10 9 8 7 7 7 6 7 7 7 8 8 9 8 7 7 7 7 6 6 8 8 8 9 10 10 11 11 10 11 11 10 9 9 11 11 11 11
3 3 4 5 7 6 5 9 7 7 10 3 4 5 3 5 5 4 7 2 5 1 4 6 3 2 8 14 16 16 15 14 12 12 10 13 13 11 9 9 7 7 8 10 10 11 10 9 8 8 7 7 6 6 5 6 7 8 8 7 6 7 7 7 7 7 7 7 8 9 10 9 9 10 10 9 9 10 9 9 9 9 9 11 11 11
3 1 1 4 6 7 2 0 2 6 2 3 4 5 2 1 2 4 6 6 7 4 5 1 14 14 14 16 17 17 17 16 15 14 15 12 11 11 9 9 9 9 10 11 10 9 9 9 8 7 6 6 6 5 5 8 9 9 8 8 6 6 7 7 7 7 8 8 8 9 9 9 9 8 7 8 8 7 8 9 9 9 10 9 9 11
3 5 3 4 8 9 6 1 1 2 4 4 5 5 3 2 5 7 9 6 7 11 3 2 18 19 14 14 15 15 16 15 13 13 14 12 12 11 9 10 11 12 10 10 10 11 10 8 8 7 7 6 5 5 7 9 9 8 8 8 7 8 7 7 8 8 8 8 8 8 8 7 6 6 6 6 6 7 7 7 7 8 8 8 9 10
6 6 4 4 5 2 3 3 5 4 4 2 3 3 4 4 2 6 3 7 11 9 10 15 16 19 16 16 17 17 18 18 17 15 14 14 12 11 12 12 12 12 11 11 9 10 10 9 7 7 6 5 5 7 9 10 9 8 8 7 7 8 7 7 8 8 7 8 8 8 7 6 6 5 5 5 6 6 7 6 6 6 7 7 8 8
5 3 4 3 2 7 8 5 7 11 4 8 10 9 3 3 5 5 6 13 7 9 19 22 16 18 17 18 16 15 14 16 14 13 13 13 14 13 12 13 13 11 11 11 10 10 8 8 7 6 5 4 5 8 10 9 9 8 8 7 8 8 6 7 7 7 7 7 6 5 5 5 5 6 5 6 6 5 6 7 6 6 6 7 8 8
10 6 4 2 3 4 7 6 8 9 8 6 8 12 13 8 6 3 8 7 15 12 14 18 14 10 3 10 14 14 14 14 14 15 15 14 13 13 13 13 13 12 11 10 9 9 7 6 6 6 5 5 7 9 9 9 8 7 7 7 8 8 6 7 8 7 7 8 7 7 6 5 5 4 6 6 6 5 5 7 7 7 6 6 7 8
10 3 2 1 5 3 4 6 5 9 11 10 8 13 14 9 5 1 6 2 8 14 17 16 13 6 8 13 13 14 15 18 18 16 14 12 12 14 15 14 13 12 11 10 9 7 6 7 7 7 6 6 8 9 9 8 7 8 7 7 7 7 6 8 8 8 8 8 8 7 7 7 7 8 8 7 7 6 5 4 6 7 7 7 7 8
5 4 1 2 7 2 5 1 1 6 5 4 7 9 9 3 1 3 5 6 11 26 16 14 13 13 18 19 19 16 17 16 16 16 14 12 13 15 15 14 13 12 11 8 7 7 7 7 6 6 6 7 10 10 8 8 8 7 6 7 5 6 7 8 8 8 9 8 8 8 7 7 8 8 9 9 8 7 5 5 5 6 7 8 6 6
8 10 3 2 6 3 7 3 2 4 3 2 4 7 3 1 2 8 5 6 6 2 7 9 17 16 16 17 21 20 20 17 15 11 13 17 15 13 12 13 12 11 9 8 8 9 7 6 6 6 7 8 9 9 7 8 8 6 6 7 6 7 6 7 7 8 8 7 7 7 8 8 9 9 9 9 9 8 8 7 7 6 5 5 5 7
9 8 3 1 6 1 3 3 4 2 3 2 4 4 10 11 10 18 14 11 8 13 20 20 18 16 14 11 13 11 12 12 10 13 10 9 11 14 15 13 12 10 10 10 9 8 7 7 7 8 9 9 8 7 8 7 7 6 7 6 8 7 7 7 8 9 8 8 8 8 8 8 9 9 9 9 8 8 9 8 8 8 7 6 6 6
7 10 5 5 2 2 4 2 4 1 2 1 2 2 2 3 2 16 15 11 6 10 13 17 17 17 16 15 13 10 11 13 12 9 9 10 11 13 14 12 11 11 11 9 10 8 8 8 9 9 7 7 9 7 6 6 4 6 7 6 8 8 8 9 10 9 8 8 8 8 8 8 9 9 8 9 8 9 9 8 8 8 7 7 7 6
13 5 8 3 1 5 1 4 2 0 0 3 1 1 1 2 3 3 8 2 3 8 14 16 16 17 17 15 16 14 13 14 13 8 6 11 11 10 11 10 11 11 10 8 9 9 8 8 9 8 9 9 9 8 6 5 4 5 6 8 8 8 8 9 9 9 8 8 8 8 8 8 8 8 8 8 8 9 9 9 9 8 7 7 7 7
2 10 4 8 1 4 7 4 2 1 1 4 6 4 6 3 1 6 8 5 6 2 9 18 18 19 19 17 17 17 16 16 11 7 5 9 11 12 10 10 11 10 9 8 7 8 8 7 8 8 11 10 9 7 6 6 7 8 9 10 9 9 8 8 9 8 8 7 7 7 7 7 7 8 8 8 9 8 8 7 7 7 7 7 7 8
10 8 6 10 4 3 2 5 3 3 3 4 9 6 5 3 10 8 7 2 2 3 8 16 19 18 20 22 20 20 15 15 11 9 7 9 12 11 13 11 10 10 9 10 10 9 8 8 9 9 9 10 10 7 7 8 9 11 10 9 8 7 7 7 7 7 7 6 6 6 6 6 6 7 7 8 8 7 8 7 7 6 6 7 6 7
9 4 6 7 4 1 4 3 3 1 1 4 5 3 5 6 3 3 1 6 9 9 10 14 20 19 17 18 18 16 17 18 14 11 9 11 13 12 11 12 12 10 9 7 6 8 8 7 9 8 9 9 7 7 8 8 9 9 9 7 6 7 7 7 6 6 6 5 5 5 6 5 6 6 7 7 7 7 7 6 7 8 7 7 6 7
4 4 5 8 5 4 6 1 2 2 3 1 4 5 8 6 5 4 7 5 14 14 13 14 16 17 17 16 13 10 3 3 14 15 12 13 14 12 10 9 10 10 10 7 7 8 8 8 9 9 8 7 7 7 6 7 9 8 7 7 7 6 5 5 6 7 6 5 5 5 5 5 6 7 6 6 6 5 6 6 6 7 7 7 7 7
3 3 1 4 5 5 2 5 2 2 3 1 0 7 7 5 3 7 4 6 18 17 13 14 15 14 15 13 8 7 12 15 14 13 15 14 14 13 12 12 10 8 7 7 8 8 8 8 8 7 6 6 7 6 6 7 8 6 7 7 7 6 6 7 7 6 6 6 5 4 5 5 6 6 6 5 6 6 7 6 6 6 6 6 6 8
1 3 2 3 1 3 3 4 3 4 2 2 7 3 0 2 4 3 7 8 14 19 15 13 12 12 12 12 13 15 17 15 14 14 14 14 15 14 12 11 10 9 9 9 8 7 9 9 10 9 8 6 6 6 5 7 7 6 5 7 5 5 6 6 6 6 5 5 5 5 5 5 6 5 5 5 6 6 6 5 6 6 6 6 7 8
2 4 0 1 1 5 2 3 3 1 2 1 5 6 4 3 7 10 13 12 7 13 16 11 10 10 10 14 17 18 16 16 13 14 13 13 12 11 10 9 9 9 10 10 9 8 9 10 10 9 7 6 6 6 6 7 6 5 6 5 4 5 6 6 6 5 5 5 5 5 5 5 5 5 4 5 5 5 5 6 6 6 6 6 6 7
2 1 4 5 1 1 3 2 1 3 1 2 3 3 3 3 8 10 11 18 17 11 11 13 13 12 13 17 18 18 15 15 15 13 14 13 13 12 11 10 9 10 11 11 10 9 9 11 11 9 7 6 6 6 6 5 6 5 5 4 5 6 6 6 6 5 5 5 5 5 5 5 5 4 4 4 4 5 5 5 5 7 6 6 7 7
2 3 3 6 4 6 8 5 3 3 5 8 7 5 10 9 6 9 12 12 7 12 13 13 13 14 15 17 19 15 15 14 16 13 12 12 12 11 9 9 9 9 9 9 8 9 8 8 8 9 8 5 6 6 4 4 6 6 5 3 4 5 5 6 6 5 4 4 5 5 5 5 4 4 3 3 3 4 3 4 5 6 6 6 6 6
2 2 1 6 5 2 3 2 4 5 4 8 11 8 8 6 8 9 9 9 11 11 11 12 12 14 16 16 18 16 16 16 15 14 13 12 11 11 10 9 9 10 10 10 8 8 8 7 8 9 9 7 4 5 4 4 3 4 2 2 2 3 4 6 6 5 4 4 4 4 4 5 4 4 3 3 3 4 4 3 4 4 5 5 6 6
1 1 7 3 5 3 5 4 5 5 5 4 7 11 10 9 9 7 8 9 11 11 12 13 14 15 14 15 17 19 16 14 17 15 13 12 11 9 9 11 12 11 9 8 8 9 8 9 8 9 10 8 6 5 5 5 5 4 4 3 4 4 6 6 6 6 4 4 4 3 4 4 5 5 3 3 2 3 2 2 2 4 3 5 5 6
5 1 3 2 5 8 10 7 9 11 10 7 6 7 8 10 13 12 13 14 14 15 15 12 12 13 13 14 15 18 17 14 14 16 14 12 10 9 10 11 11 10 9 10 9 10 9 8 9 9 9 8 6 6 6 6 5 5 6 4 4 6 7 7 6 5 4 4 4 3 2 3 2 3 3 2 1 1 0 0 1 1 1 0 1 1
6 3 6 10 10 8 7 10 12 10 5 4 6 10 11 11 14 15 14 14 15 15 15 16 13 12 12 14 14 16 19 15 12 12 13 11 12 12 12 12 11 10 9 8 8 8 8 8 8 7 6 5 6 7 6 5 5 5 6 5 5 7 8 6 6 5 4 4 4 4 4 3 2 2 2 2 1 1 1 2 3 3 0 0 2 3
4 9 9 9 9 7 6 7 2 10 10 7 9 9 12 11 14 15 15 14 14 13 15 17 17 15 14 13 12 14 15 17 15 12 12 11 11 11 11 12 11 9 9 9 9 8 9 7 6 7 7 6 5 5 4 4 4 5 5 5 6 7 7 6 6 4 4 4 5 4 5 4 3 2 1 1 0 0 1 2 3 4 3 5 4 4
Wind_Direction
117 192 204 211 210 208 207 177 159 212 231 204 190 198 228 206 240 248 247 238 190 159 219 197 216 221 166 146 158 156 141 132 136 137 134 134 129 128 125 119 120 120 131 143 117 111 107 101 94 86 85 93 80 75 88 103 104 101 113 113 104 89 86 99 103 95 125 146 294 300 238 243 245 238 233 242 231 223 221 210 205 205 208 209 220 220
156 213 224 207 171 188 197 159 175 214 238 233 230 211 244 213 227 220 230 218 212 172 238 199 206 232 204 154 150 138 143 149 147 140 136 133 129 125 123 124 122 124 120 116 113 112 107 102 95 93 90 93 99 77 78 89 100 97 92 98 105 88 93 113 144 189 179 191 182 183 218 224 242 240 233 245 242 226 229 225 220 217 212 213 219 223
210 220 205 161 182 167 188 177 179 202 227 237 217 217 229 249 228 240 229 211 215 190 232 160 173 228 334 149 145 145 156 157 158 150 148 138 133 130 130 126 125 122 120 121 121 118 116 115 109 94 87 76 84 88 77 58 86 84 86 96 101 107 127 148 153 141 203 241 245 210 245 202 256 250 241 233 241 230 220 227 226 218 212 207 212 214
214 234 165 177 167 174 200 189 188 211 228 232 225 195 219 228 162 253 284 225 217 193 213 168 160 66 60 115 105 103 130 107 84 93 101 119 133 135 135 132 129 128 128 129 130 121 118 114 109 101 94 94 94 83 69 53 71 68 75 73 62 39 21 14 214 206 222 222 265 283 258 270 224 258 265 254 271 264 268 257 233 225 210 202 204 197
204 114 158 171 191 185 194 200 192 199 224 235 214 205 212 231 221 154 245 220 204 227 174 94 81 41 104 127 61 57 78 98 92 89 89 97 110 118 118 120 127 130 130 128 122 119 113 102 94 89 82 77 74 78 89 93 62 67 77 100 118 99 340 336 310 276 252 248 296 318 328 347 343 352 348 343 313 276 231 233 224 230 210 204 207 202
221 227 165 185 195 198 195 199 206 190 217 241 233 204 216 222 215 224 271 286 227 236 206 143 66 72 314 152 134 129 98 86 102 105 109 117 120 121 122 121 120 115 115 120 120 114 111 108 97 76 68 62 47 39 35 47 50 52 50 53 51 49 41 26 1 341 341 325 293 1 4 338 351 321 329 328 310 317 319 299 283 256 200 206 212 210
199 195 179 189 193 201 205 212 206 183 212 212 237 187 215 223 205 210 295 101 196 206 225 167 142 93 312 165 140 128 114 118 111 106 115 119 120 115 116 116 119 118 109 102 104 107 107 108 97 82 76 67 59 42 47 49 50 56 59 60 62 56 48 34 25 27 32 34 24 3 331 326 318 336 322 327 324 314 307 309 318 312 320 281 247 241
185 194 191 189 195 199 205 213 205 189 189 230 180 151 207 212 209 214 221 186 241 272 24 144 126 141 167 255 179 138 124 128 121 122 118 113 111 105 94 104 112 116 113 111 106 105 104 101 101 92 78 72 56 43 52 51 47 48 51 59 56 52 46 34 31 34 28 37 24 26 30 35 24 16 3 355 346 352 347 351 356 346 329 335 344 338
171 193 195 194 194 203 211 210 177 181 198 221 203 163 189 168 186 216 203 228 229 158 272 149 127 91 173 170 165 144 130 135 139 135 128 119 112 108 106 104 105 109 111 106 106 106 107 99 93 96 89 83 66 53 58 51 49 46 51 61 62 58 49 39 41 45 35 31 26 31 31 34 25 14 7 348 3 9 3 15 3 10 5 4 342 274
195 205 201 197 195 211 209 169 189 189 210 226 239 157 185 138 179 182 211 206 215 142 225 191 183 114 194 199 171 192 144 151 147 136 127 125 124 121 116 112 107 103 106 104 99 99 95 96 96 97 97 85 74 69 63 62 63 52 48 57 63 55 54 47 42 46 47 37 32 35 31 30 21 13 4 10 5 360 359 13 6 354 3 357 346 313
192 200 200 203 205 212 170 214 205 210 215 34 213 242 239 117 185 229 206 187 124 234 220 204 195 134 179 216 186 178 177 150 138 128 129 125 121 118 118 117 116 111 105 107 105 101 98 95 102 97 88 86 71 65 63 47 44 35 35 44 48 37 39 39 42 42 44 43 41 41 32 31 27 16 16 10 2 353 359 6 3 354 341 337 325 317
250 188 214 215 204 180 173 214 219 223 206 217 225 202 199 335 61 267 250 114 176 245 229 202 194 148 146 214 223 245 157 154 151 149 147 141 133 126 123 119 117 113 109 108 107 104 104 100 90 95 88 78 79 61 48 41 43 46 55 58 52 36 32 31 26 32 41 47 45 44 37 36 31 23 18 9 354 351 347 354 355 342 339 337 325 317
231 222 211 222 194 185 185 200 215 212 213 216 223 152 166 220 144 238 231 221 199 204 238 189 175 157 181 225 185 170 175 171 161 149 147 141 134 129 126 123 117 116 114 110 108 110 101 99 108 102 92 86 73 77 67 64 68 73 73 71 68 38 31 33 34 33 27 43 42 35 32 34 27 22 14 2 358 356 345 353 347 345 343 335 335 328
243 254 224 213 217 198 185 192 183 202 206 208 208 176 171 160 167 197 208 215 267 256 249 164 196 166 138 16 301 168 177 152 130 113 126 132 133 130 127 122 118 112 113 113 115 113 107 106 110 104 104 98 95 99 95 75 69 73 66 62 77 52 22 47 47 43 38 32 29 22 29 34 25 16 4 1 3 351 353 356 344 344 343 334 328 318
188 217 236 199 207 186 198 200 195 203 197 207 207 160 171 140 164 186 187 192 202 207 204 117 173 255 125 250 74 134 122 103 111 115 115 117 120 119 118 115 113 115 113 119 119 117 117 114 107 100 98 101 109 116 102 79 75 84 86 85 82 77 66 85 80 70 66 52 36 27 23 33 28 21 12 16 8 1 5 356 352 352 349 351 340 334
213 243 236 211 214 186 211 199 189 167 167 214 172 100 125 207 139 184 201 150 166 122 84 -0 59 347 116 21 90 101 102 102 113 118 120 119 119 120 120 120 123 122 121 121 120 116 114 113 109 105 98 92 88 97 77 83 98 107 111 107 116 130 78 52 63 82 95 76 68 58 46 37 36 23 23 19 9 9 5 355 357 352 353 353 348 345
182 222 209 205 221 193 210 182 198 170 202 192 159 196 209 160 112 108 88 19 94 86 4 309 114 93 105 44 89 110 107 109 110 115 114 117 120 120 120 124 125 123 120 123 119 115 115 113 110 105 100 92 102 110 97 107 132 137 129 126 145 191 288 6 21 8 17 42 48 32 40 40 32 26 35 25 20 13 6 359 360 359 353 356 3 351
149 240 248 199 209 222 204 192 194 197 156 142 192 210 97 145 124 135 198 247 99 147 162 226 164 166 155 173 158 118 113 124 117 127 124 124 127 122 123 122 123 120 116 112 109 111 116 120 112 100 93 103 104 89 99 123 139 132 148 159 172 242 296 319 22 25 18 28 35 29 31 31 31 27 18 12 18 17 8 1 2 2 1 3 357 353
144 268 225 217 217 204 214 188 202 216 191 191 210 133 153 166 196 294 118 192 148 133 151 212 183 180 203 144 154 140 135 141 140 139 134 136 134 123 121 119 116 113 109 107 111 112 116 113 113 116 120 104 83 92 111 119 111 106 107 138 98 72 62 62 51 49 42 48 50 47 42 36 33 27 24 14 7 12 14 14 9 6 2 360 3 357
358 193 288 217 208 186 198 180 200 201 212 215 91 156 164 130 167 153 196 168 108 151 137 141 173 220 199 156 167 155 152 150 144 147 144 141 137 129 127 125 121 116 114 112 114 119 120 120 120 120 109 99 103 105 106 102 95 72 48 57 59 61 64 68 63 53 53 50 58 53 46 42 36 29 25 18 16 22 19 18 13 11 5 7 1 358
258 150 267 258 211 176 211 188 204 193 190 193 150 196 181 196 219 135 88 139 150 156 162 138 193 237 240 158 168 157 151 144 144 139 135 133 133 127 127 126 124 121 118 123 128 123 122 110 92 85 95 106 99 90 81 85 84 67 55 57 63 75 72 67 61 60 59 60 57 57 53 45 38 31 24 22 29 31 25 17 15 10 10 6 7 4
333 190 215 288 180 194 212 201 201 194 183 152 158 194 190 162 124 172 247 23 99 117 156 151 194 137 242 218 156 151 148 140 140 131 132 131 130 127 125 122 125 128 132 131 125 129 116 96 95 99 95 93 94 77 79 72 72 62 63 68 73 71 66 73 67 72 70 65 61 58 57 53 46 40 35 37 36 37 28 22 18 13 9 11 11 12
168 164 146 251 222 208 215 201 191 165 146 171 156 221 170 143 119 102 143 248 56 23 97 143 117 190 95 270 148 145 143 138 138 129 128 126 122 123 122 123 128 132 128 127 128 111 99 100 98 98 95 88 78 73 63 53 50 47 49 59 65 71 61 64 72 74 72 67 61 55 55 58 54 48 44 43 41 36 31 25 20 18 13 14 8 11
160 146 160 253 271 287 253 202 151 151 139 132 155 111 111 177 171 156 169 182 115 143 87 25 72 215 321 127 128 130 126 126 129 128 126 120 120 122 123 126 129 112 102 95 93 96 95 97 92 82 81 82 79 75 69 67 63 56 52 62 68 66 62 58 59 67 69 68 63 56 55 57 54 48 45 44 38 38 33 27 24 18 18 13 7 9
180 249 142 205 299 279 314 2 35 187 127 139 186 199 177 142 164 165 109 96 106 209 167 130 179 199 165 132 126 128 128 130 132 131 129 126 127 131 129 125 113 106 102 99 99 96 87 82 80 86 89 89 85 77 71 66 65 61 63 67 72 71 66 64 60 63 66 69 67 55 53 55 53 49 46 45 42 41 36 32 27 26 23 18 16 12
137 201 108 171 181 174 176 182 201 185 191 197 160 167 180 170 156 109 173 134 123 217 109 111 92 111 130 132 133 134 132 129 130 128 123 127 135 136 132 127 118 105 99 97 95 88 90 91 94 93 91 86 80 80 74 66 63 70 74 71 73 74 68 64 64 63 63 63 66 61 54 52 52 51 49 47 46 42 40 35 30 27 28 26 22 16
181 172 135 173 173 196 194 192 216 132 96 167 173 158 202 148 159 112 117 123 160 177 73 265 142 137 140 143 144 146 142 141 139 140 136 135 135 133 132 127 120 109 102 100 100 102 93 84 86 91 87 85 82 79 74 73 79 83 82 74 67 67 67 63 64 60 60 57 63 67 62 57 55 51 47 46 45 43 39 36 31 30 30 27 28 25
118 223 221 196 232 189 207 13 336 108 149 176 143 175 98 116 140 135 153 202 158 102 20 116 144 134 158 145 140 140 138 135 137 138 135 137 138 137 132 122 111 106 105 102 97 94 92 91 87 86 86 83 86 82 73 73 80 80 78 75 67 65 66 66 67 62 58 57 61 65 63 59 58 52 49 46 46 47 44 37 34 33 32 29 28 26
133 203 259 150 240 7 2 57 63 58 50 93 120 156 166 120 131 145 207 154 153 147 165 170 162 143 162 156 153 153 149 146 145 142 138 137 132 131 131 121 115 113 109 102 99 96 94 95 96 94 97 108 94 78 75 83 84 82 76 74 71 68 65 68 69 66 60 58 60 61 60 58 55 52 47 46 48 47 42 36 32 31 32 33 31 28
90 272 258 167 95 18 7 14 79 88 76 53 37 33 37 136 176 145 160 165 168 151 148 159 168 158 158 155 150 144 136 129 129 129 131 135 138 135 127 119 117 114 109 108 105 100 99 100 102 103 95 73 75 79 90 91 88 86 86 80 74 71 65 67 64 63 58 55 53 51 52 54 54 50 45 43 46 46 43 37 30 27 27 30 30 26
132 246 267 210 76 5 0 22 72 94 97 80 31 32 32 20 62 99 120 80 77 77 126 129 124 111 61 120 123 125 126 124 128 138 142 140 139 131 123 123 119 116 115 110 107 102 105 97 80 71 70 72 75 85 94 97 95 91 84 82 78 75 70 70 66 59 55 50 41 38 35 37 37 36 39 37 36 39 43 39 35 30 27 26 26 24
138 221 10 25 83 330 337 36 82 93 86 75 34 15 7 7 80 10 124 213 122 133 125 115 114 123 128 123 118 126 134 137 141 143 141 141 132 127 127 127 123 121 117 113 107 100 84 80 85 84 81 74 80 93 101 100 97 90 87 84 83 83 78 73 69 64 58 52 46 43 42 40 41 39 35 32 28 26 30 34 37 37 31 27 25 23
136 115 28 87 85 295 270 273 169 94 56 20 355 341 333 323 156 105 43 34 144 134 127 144 184 155 149 145 138 145 142 143 143 145 137 129 130 132 133 129 124 122 115 109 99 96 101 100 98 94 82 74 91 103 106 107 100 95 94 89 90 90 79 76 73 69 65 56 51 44 39 38 39 38 35 31 29 22 20 22 30 34 31 29 23 21
123 119 120 284 114 246 294 336 349 70 169 217 315 316 241 254 281 96 54 55 12 31 171 158 140 134 141 146 147 153 151 153 148 149 144 144 139 132 126 124 123 118 110 105 109 110 112 106 92 83 81 87 98 105 108 104 104 104 98 94 85 82 80 78 69 65 59 51 45 42 41 40 41 41 37 35 33 32 28 23 21 16 15 17 19 27
113 101 111 153 97 221 323 20 57 201 224 300 300 10 74 78 95 87 67 44 70 94 100 104 117 129 131 127 124 124 122 122 126 126 117 118 126 131 132 127 123 118 117 117 113 114 114 112 101 86 75 81 96 101 101 97 102 103 91 86 82 72 73 64 64 60 60 59 52 50 46 45 45 44 40 37 35 32 32 28 22 18 10 10 8 16
126 116 145 53 91 44 33 18 171 240 256 280 312 291 62 107 55 81 54 21 60 102 112 116 126 124 125 121 111 106 107 98 81 65 97 108 122 130 126 128 126 122 122 127 125 125 121 111 104 95 91 91 89 90 96 103 103 99 93 81 79 77 73 74 72 73 70 64 58 55 51 51 49 47 43 40 34 32 28 26 23 19 9 10 7 6
126 101 105 81 34 119 140 50 58 351 203 32 1 286 105 116 47 1 117 50 3 125 129 124 120 120 117 118 119 120 114 96 85 62 72 117 120 114 117 122 122 122 125 128 126 126 124 117 104 101 94 88 89 89 89 92 89 87 83 79 79 80 79 79 79 78 74 69 63 58 55 54 54 50 46 38 37 31 26 22 16 15 8 11 8 9
139 127 216 105 334 117 133 93 38 27 224 234 226 219 187 178 210 109 108 90 328 27 134 130 131 130 127 128 130 129 121 110 112 118 142 127 116 114 107 109 113 119 124 125 119 118 115 110 101 96 98 95 88 91 93 94 94 92 89 90 90 87 86 85 84 84 80 77 70 63 58 54 53 52 43 38 33 25 20 15 15 14 5 16 6 10
39 78 119 113 152 92 75 126 171 151 242 195 202 212 201 153 136 125 68 128 265 164 155 139 135 141 143 143 143 141 139 136 146 152 178 134 120 118 119 120 121 124 128 128 128 125 119 115 111 108 100 96 94 93 93 93 91 90 93 93 94 94 90 86 84 83 87 84 79 70 62 55 52 48 44 40 28 23 20 15 15 5 9 13 12 11
57 20 61 60 96 115 127 92 161 198 173 232 186 163 170 143 113 50 156 230 181 175 158 153 145 148 149 149 148 152 149 146 158 167 164 136 123 123 126 130 131 130 129 127 120 123 121 115 103 97 99 103 111 107 96 94 92 93 95 98 101 97 96 93 93 90 87 84 78 76 63 58 56 49 48 41 31 24 21 11 18 15 16 13 14 12
30 20 42 139 143 109 97 83 30 327 288 243 186 136 145 136 88 124 205 222 158 160 164 157 153 148 147 150 158 146 352 85 132 138 140 128 119 119 121 125 130 131 129 124 123 122 119 118 117 119 120 119 111 101 99 95 93 92 97 100 96 100 109 104 90 83 86 87 84 80 74 63 62 58 48 44 40 28 24 17 17 13 19 18 15 23
17 76 16 57 90 124 147 107 174 223 236 155 293 139 153 116 129 204 242 145 146 151 159 155 154 153 149 142 98 92 114 119 125 129 131 129 127 130 134 135 131 126 117 118 119 114 109 106 108 111 109 110 109 109 101 100 99 100 98 94 100 115 109 99 97 92 89 89 90 88 79 74 62 57 57 45 39 36 28 14 15 16 15 16 23 29
201 97 149 136 181 61 43 83 103 162 221 132 126 76 162 138 229 178 122 129 144 144 149 153 153 153 139 117 116 118 123 128 133 133 128 128 130 135 136 134 134 128 124 119 114 116 115 113 122 128 130 125 117 113 109 101 100 100 102 105 124 115 99 101 101 99 99 95 91 88 84 78 73 61 55 51 44 44 34 14 19 12 12 18 23 30
209 83 149 301 190 141 140 158 195 255 189 248 153 176 199 209 148 146 131 125 143 146 146 146 156 137 127 124 126 128 130 131 132 130 126 125 129 128 128 130 127 121 121 123 128 127 110 111 123 129 132 131 130 124 120 114 116 117 115 128 145 106 105 104 107 107 103 99 92 84 80 79 74 67 57 57 54 44 40 26 20 18 14 11 20 25
254 153 189 155 273 141 185 185 333 355 336 322 135 131 100 104 133 145 144 147 148 159 147 146 146 134 136 132 130 132 136 138 134 134 134 137 138 138 136 135 127 124 125 129 130 118 110 122 131 130 128 134 137 136 129 126 123 127 122 149 119 115 114 117 114 113 110 101 92 88 81 70 72 73 65 57 59 56 38 33 26 31 9 17 20 23
37 106 96 78 92 97 54 51 76 38 70 72 56 92 116 114 102 119 128 128 138 141 151 146 139 138 138 138 132 137 136 140 132 133 133 138 140 137 130 121 116 122 126 124 118 109 113 111 106 107 112 128 144 134 116 124 133 132 158 164 128 132 123 116 115 116 121 109 99 94 90 83 71 64 65 61 61 67 47 44 30 39 16 20 24 23
253 279 33 115 167 73 78 351 61 85 68 87 93 71 69 80 112 117 117 120 132 133 125 128 134 136 138 140 135 137 139 140 134 136 141 142 143 138 131 125 127 132 133 129 123 113 106 109 105 109 121 131 120 97 103 95 102 142 155 136 92 65 79 95 112 123 126 125 110 92 89 98 93 80 55 43 48 48 42 35 33 33 28 26 26 23
338 144 79 68 70 82 132 124 90 77 69 73 94 107 100 96 87 86 102 112 117 119 122 129 132 134 140 141 140 138 141 143 140 142 143 145 142 136 132 132 135 134 131 123 115 111 112 109 111 114 116 123 132 129 123 122 132 143 130 113 101 94 81 84 109 131 149 149 126 114 110 101 95 92 65 34 44 53 28 11 31 46 33 32 18 26
163 59 130 208 106 86 91 100 104 80 64 57 74 74 101 113 110 108 112 117 121 124 127 128 132 136 139 140 143 138 138 146 144 143 143 142 139 136 135 134 134 132 125 114 117 121 124 117 110 114 123 132 130 119 116 119 123 119 119 121 110 96 88 92 105 115 119 117 108 110 103 107 108 107 109 79 27 10 206 266 306 53 353 274 216 17
67 87 126 108 117 161 168 168 145 125 138 114 107 118 114 114 115 118 120 123 128 131 132 130 129 131 133 139 144 143 140 141 143 143 140 140 140 136 136 133 133 127 116 113 115 116 113 113 115 112 108 113 126 129 132 137 133 123 122 116 109 101 98 95 85 84 96 120 121 135 132 135 129 145 136 133 101 21 0 268 238 220 202 312 308 291
142 176 159 155 158 182 157 155 56 100 104 120 129 125 120 120 121 125 129 131 131 132 134 134 134 133 137 140 144 142 143 144 146 142 134 136 137 137 134 131 127 117 116 116 110 106 105 104 106 105 98 99 98 100 107 105 114 121 123 115 112 103 105 94 82 72 45 70 94 117 134 148 183 219 175 150 135 333 3 340 312 293 260 236 261 285